User: anonymous   Login
Location: Boiro
(42.6475°N, 8.8834°W)
Time: 09:48:35
(UTC+02:00)
Language:

TABLETSAT AURORA - Orbit

View from above orbital plane
View from above orbital plane
View from above satellite
View from above satellite

Ground track
Ground track

The orbit data is extracted from the following two-line orbital elements,

1 40017U 14033H   22176.72341795  .00002791  00000-0  25945-3 0  9996
2 40017  98.1212 158.8427 0023802  29.0025 331.2420 14.95033251436804
Epoch (UTC): 25 June 2022 17:21:43
Eccentricity: 0.0023802
inclination: 98.1212°
perigee height: 566 km
apogee height: 599 km
right ascension of ascending node: 158.8427°
argument of perigee: 29.0025°
revolutions per day: 14.95033251
mean anomaly at epoch: 331.2420°
orbit number at epoch: 43680

The dashed part of the orbit path shows where the satellite is in the earth's shadow,  

DLR